Powrót do katalogu

STARLINK-32309

AktywnyŁącznośćVLEO
NORAD 61676·PAYLOAD·🇺🇸 United States

Wystrzelony Oct 26, 2024 z Cape Canaveral Space Force Station

Loading…

Następne Przeloty (najbliższe 24 godziny)

TLE

ŚwieżeSource: CelesTrak SupGP

Epoka: Sep 14, 2026, 14:47 UTC

1 61676C 24193R   26257.61645833  .00018541  00000+0  54808-3 0  2576
2 61676  53.1573 289.3417 0001160  74.6924 163.6904 15.34365645    18

Śledź STARLINK-32309 w czasie rzeczywistym z AllMySat

Download on the App Store